41P/Tuttle-Giacobini-Kresak (2017)

Japanese version
Home page
Updated on January 17, 2017

---------------------------------------------------------------------

* Profile

* Pictures

* Orbital Elements

Epoch 2017 Mar. 28.0 TT = JDT 2457840.5
T 2017 Apr. 12.74715 TT                                 MPCW
q   1.0450492            (2000.0)            P               Q
n   0.18192600     Peri.   62.15139     -0.91179453     +0.39809128
a   3.0846522      Node   141.07045     -0.40999040     -0.86863567
e   0.6612100      Incl.    9.22806     -0.02320787     -0.29494983
P   5.42
From 446 observations 2006 Feb. 3-2016 Dec. 8, mean residual 0".8.
     Nongravitational parameters A1 = +0.67, A2 = -0.0160.

* Finding Charts

* Magnitudes Graph

        m1 = 13.5 + 5 log d + 18.0 log r  [   ,-65]  (             - 2017 Feb.  7)
        m1 =  8.5 + 5 log d + 55   log r  [-65,  0]  (2017 Feb.  7 - 2017 Apr. 13)
        m1 =  9.0 + 5 log d + 30   log r  [  0,   ]  (2017 Apr. 13 -             )

---------------------------------------------------------------------

The orbital elements are published on M.P.E.C. 2016-X84.
The charts are made with StellaNavigator Ver.8 (AstroArts).
The magnitudes graphs are made with Comet for Windows.

---------------------------------------------------------------------

Copyright(C) Seiichi Yoshida (comet@aerith.net). All rights reserved.